Regional Weather Roundup
Issued by NWS Wakefield, VA

Home | Current Version | Previous Version | Text Only | Print | Product List | Glossary On
Versions: 1 2 3 4 5 6 7 8 9 10 11 12 13 14 15 16 17 18 19 20 21 22 23 24 25 26 27 28 29 30 31 32 33 34 35 36 37
000
ASUS41 KAKQ 231810
RWRAKQ

REGIONAL WEATHER ROUNDUP
NATIONAL WEATHER SERVICE WAKEFIELD VA
200 PM EDT THU OCT 23 2014

Note: "fair" indicates few or no clouds below 12,000 feet with no
significant weather and/or obstructions to visibility. * = Denotes
station may not report precipitation (e.g., rain,snow,etc.),
thunder or fog.

VAZ042-051-052>054-056-231900-
NORTHERN VIRGINIA

CITY           SKY/WX    TMP DP  RH WIND       PRES   REMARKS
WASH NATIONAL  PTSUNNY   65  45  48 NW15G24   29.87F
DULLES         PTSUNNY   62  44  51 NW21G32   29.88F
FORT BELVOIR   MOSUNNY   63  45  51 NW10G18   29.87F
QUANTICO       PTSUNNY   66  44  45 N18G26    29.88F
FREDERICKSBRG* PTSUNNY   66  46  49 NW14G24   29.88S
STAFFORD*      MOSUNNY   65  44  47 NW17G29   29.92F
WARRENTON      PTSUNNY   64  50  60 NW18G26   29.90S
CULPEPER*      MOSUNNY   66  45  45 NW17G28   29.91F
MANASSAS*      PTSUNNY   66  46  48 N18G37    29.88
LEESBURG*      PTSUNNY   64  48  55 N20G32    29.89F
WINCHESTER     CLOUDY    61  37  41 NW18G25   29.94F
FRONT ROYAL*   PTCLDY    61  43  51 NW17G28   29.94F
LURAY*         MOCLDY    61  45  55 NW7G24    29.96F
$$

VAZ048-049-060>072-079>083-231900-
CENTRAL AND SOUTH CENTRAL VIRGINIA...AND NORTH CENTRAL NORTH CAROLINA

CITY           SKY/WX    TMP DP  RH WIND       PRES   REMARKS
RICHMOND       MOSUNNY   68  45  43 NW14G25   29.87F
CHESTERFIELD*    N/A    N/A N/A N/A MISG        N/A
PETERSBURG*    MOSUNNY   66  42  41 W12G20    29.89F
HANOVER        MOSUNNY   67  46  47 NW14G26   29.90F
TAPPAHANNOCK*  SUNNY     65  40  41 NW13G20   29.87F
CHARLOTTSVILLE SUNNY     66  43  43 NW14G24   29.92F
ORANGE*        SUNNY     66  45  45 NW13G25   29.92F
LOUISA*        MOSUNNY   66  46  48 NW16G23   29.88F
FARMVILLE*     SUNNY     68  43  40 N5G16     29.90F
CREWE*         CLEAR     67  44  42 NW10G18   29.90F
FORT PICKETT*  CLEAR     66  44  45 NW14G21   29.90F
LUNENBURG*     CLEAR     67  46  47 NW7G16    29.91F
SOUTH HILL*    SUNNY     68  46  45 NW9       29.97F
LAWRENCEVILLE* CLEAR     66  46  49 NW13G21   29.90F
ROANOKE RAPIDS CLEAR     63  45  51 W9G18     29.91F
RALEIGH        SUNNY     66  42  41 W8        29.97F
$$

VAZ088>098-231900-
SOUTHEAST VIRGINIA

CITY           SKY/WX    TMP DP  RH WIND       PRES   REMARKS
NORFOLK        PTSUNNY   63  45  51 N13G22    29.85F
VIRGINIA BEACH PTSUNNY   63  46  54 NW20G29   29.84F
NORFOLK NAVAL  PTSUNNY   65  47  52 NW17G26   29.86F
WEST POINT*    PTSUNNY   69  43  38 NW12G22   29.86F
NEWPORT NEWS   PTSUNNY   66  47  50 NW13      29.86F
LANGLEY AFB    PTSUNNY   64  48  57 NW14      29.85F
FORT EUSTIS    CLOUDY    63  44  50 NW10G20   29.84F
WILLIAMSBURG*  SUNNY     66  48  52 NW13G18   29.87F
HR EXEC AP*    CLOUDY    63  46  55 NW7G17    29.89S
FRANKLIN*      MOSUNNY   66  46  48 W9        29.88F
WAKEFIELD      MOSUNNY   66  46  48 NW10G20   29.88F
$$

VAZ020-022-025-037-045-231900-
WEST CENTRAL AND SOUTHWEST VIRGINIA

CITY           SKY/WX    TMP DP  RH WIND       PRES   REMARKS
STAUNTON*      SUNNY     64  41  43 N15G22    29.99S
HOT SPRINGS VA PTSUNNY   48  39  70 W15G25    30.01F
LYNCHBURG      SUNNY     65  42  43 NW13      29.97F
DANVILLE       SUNNY     67  42  40 NW13G23   29.98F
SOUTH BOSTON*  NOT AVBL
MARTINSVILLE   SUNNY     64  40  41 NW10G18   30.04F
ROANOKE        MOSUNNY   61  40  45 NW16      30.04F
BLACKSBURG     MOSUNNY   55  45  67 W8        30.09F
DUBLIN*        MOSUNNY   55  42  62 N7        30.10F
MARION*        PTSUNNY   52  39  62 W10       30.14F
HILLSVILLE*    SUNNY     50  39  65 NW17G23   30.07F
RICHLANDS*     CLOUDY    49  40  73 N5        30.16F
WISE*          PTSUNNY   50  36  57 NW6       30.17F
ABINGDON*      PTSUNNY   55  40  59 N7        30.15F
$$

MDZ021>025-VAZ099-100-231900-
SOUTHERN MARYLAND AND THE DELMARVA PENINSULA

CITY           SKY/WX    TMP DP  RH WIND       PRES   REMARKS
PATUXENT RIVER PTSUNNY   64  45  49 NW17G29   29.82F
BAY BRIDGE APT   N/A     61  45  55 NW15G22   29.82F
LEONARDTOWN    PTSUNNY   63  45  51 NW10G17   29.85F
DOVER          PTSUNNY   57  48  70 NW18      29.76F
GEORGETOWN     CLOUDY    58  46  64 NW8G21    29.78F
EASTON         NOT AVBL
CAMBRIDGE      CLOUDY    61  45  55 NW10G23   29.80F
SALISBURY      CLOUDY    61  47  59 NW13G23   29.79F
OCEAN CITY     CLOUDY    56  47  71 NW12G21   29.77F
WALLOPS ISLAND PTSUNNY   60  47  61 NW17G25   29.78F
ACCOMACK*      CLOUDY    59  45  58 NW16G29   29.82F
$$

NCZ012>017-030>032-231900-
EASTERN NORTH CAROLINA

CITY           SKY/WX    TMP DP  RH WIND       PRES   REMARKS
ELIZABETH CITY MOSUNNY   68  48  48 W15G22    29.87S
AHOSKIE*       SUNNY     63  45  52 NW5       29.89F
EDENTON*       SUNNY     66  47  50 NW15G22   29.89S
CURRITUCK*     PTSUNNY   64  45  48 W9G17     29.86F
KILL DEVIL HLS PTSUNNY   63  47  55 W13G20    29.85F
MANTEO         MOSUNNY   62  47  56 NW10G21   29.87S
CAPE HATTERAS  SUNNY     63  48  58 NW10      29.88F
TARBORO*       CLEAR     67  46  45 NW13G20   29.92F
GOLDSBORO      SUNNY     68  48  50 W10G16    29.91F
WASHINGTON     SUNNY     65  46  50 W8        29.91F
GREENVILLE     SUNNY     66  45  45 NW12      29.94F
NEW BERN       SUNNY     69  45  41 NW12      29.92F
WILMINGTON     SUNNY     68  44  42 W12G21    29.95F
$$

VAZ048-231900-
ELSEWHERE

CITY           SKY/WX    TMP DP  RH WIND       PRES   REMARKS
HARRISBURG PA  PTSUNNY   59  44  57 N14G26    29.83F
BALTIMORE      PTSUNNY   61  45  55 NW17G29   29.83F
ANNAPOLIS      CLOUDY    61  45  55 NW17      29.82F
ANDREWS AFB    CLOUDY    62  46  55 NW18G28   29.85S
WILMINGTON DE  CLOUDY    58  46  64 NW21G28   29.80S
PHILADELPHIA   CLOUDY    56  45  66 NW16G26   29.78S
WILDWOOD NJ*   CLOUDY    54  45  71 NW13G23   29.77S
ATLANTIC CITY  LGT RAIN  52  50  93 NW16      29.73F
HENDERSON NC   SUNNY     65  41  41 NW10      29.95F
GREENSBORO     SUNNY     66  40  38 N9        30.00F
ROCKY MOUNT    SUNNY     67  44  43 NW13      29.93F
FAYETTEVILLE   SUNNY     67  42  40 W12       29.97F
CHARLOTTE      SUNNY     67  37  33 N13G20    30.04F
$$

VAZ100-231900-
MARINE

STATION/POSITION TIME  TEMP    WIND        PRES    WAVE   SWELL
                       AIR SEA DIR/SP/G            HT/PER HT/PER
                 (UTC) (F)     (DEG/KT/KT) (MB)    (FT/S) (FT/S)
44066 TX TWR #4  1800   58 67  330/ 21/ 29 1000.8F   9/ 8
CAPE MAY NJ      1800   55 63  320/ 12/ 24 1007.2F
LEWES DE         1800   56 59  320/ 22/ 28 1007.6F
15NM E FENWICK I 1800   56 65  310/ 27/ 33 1006.5F   9/ 6   3/14
OCEAN-CITY-INLET 1800   57 63  340/ 12/ 14 1007.5F
WACHAPREAGUE VA  1800   60 60  290/  6/ 15 1009.5S
THOMAS POINT MD  1800   60 62  320/ 19/ 25 1010.5F
GOOSES REEF MD   1800   61     330/ 19/ 23 1010.5F
COVE POINT MD    1800   60     340/ 22/ 29 1010.0F
SOLOMONS ISLAND  1800      65                N/A
BISHOPS HEAD MD  1800   60 55  310/ 17/ 23 1009.1F
PINEY POINT MD   1800          340/ 24/ 26   N/A
POTOMAC MD       1800   61     330/ 19/ 23 1009.6F
CAMBRIDGE MD     1800   59 60  320/ 17/ 21 1009.1F
LEWISETTA VA     1800   62 60  330/ 13/ 18 1009.9F
RAPPAHANNOCK LGT 1800          300/ 25/ 28 1010.7F
STINGRAY PT      1800   61     330/ 16/ 21 1011.3S
YORK RVR RNG VA  1800   61     340/ 18/ 21 1010.1F
YORKTOWN VA      1800   62 65  310/ 16/ 18 1010.5F
JAMESTOWN VA     1800   62     330/ 16/ 17   N/A
DOMINION TERM VA 1800   61     320/ 17/ 21 1010.9F
KIPTOPEKE VA     1800      66  330/ 21/ 25   N/A
CHES BAY BRIDGE  1800   60 66  310/ 19/ 22 1010.3F
CAPE HENRY VA    1800   60     310/ 21/ 26 1009.3F
CHESAPEAKE LGHT  1700   59     320/ 26/ 30 1011.1S
WILLOUBY STN VA  1800   61     310/ 15/ 17 1009.7F
S CRANEY ISL VA  1800          290/ 11/ 18 1010.7F
CAPE HENRY BUOY  1700      68                N/A     5/ 4
1ST LANDING BUOY 1800   61     320/ 21/ 25 1010.6R
CAPE CHARLES BUO 1800      67                N/A     4/ 3   2/ 8
64NM E OF VA BCH 1800   60 67  320/ 25/ 29 1008.4F   9/ 6
DUCK PIER NC     1800   61 67  310/ 14/ 18 1010.0S
44100 DUCK FRF   1800      69                N/A     6/ 7   2/11
44056 DUCK FRF   1700                        N/A     5/ 9   2/11
OREGON INLET NC  1800   61 63  290/ 11/ 18 1011.1R
HATTERAS NC      1800   61 62  290/ 17/ 19 1012.0F
DIAMOND SHLS NC  1800   62     300/ 19/ 23 1011.5F   6/10   3/10
CAPE LOOKOUT NC  1700   62     300/ 11/ 12 1013.6F
$$



USA.gov is the U.S. government's official web portal to all federal, state and local government web resources and services.